Regional Weather Roundup
Issued by NWS

Home | Current Version | Previous Version | Graphics & Text | Print | Product List | Glossary On
Versions: 1 2 3 4 5 6 7 8 9 10 11 12 13 14 15 16 17 18 19 20 21 22 23 24 25 26 27 28 29 30 31 32 33 34 35 36 37 38 39 40 41 42 43 44 45 46 47 48 49 50
000
ASUS45 KBOU 210507
RWRCO

WEATHER ROUNDUP FOR COLORADO
NATIONAL WEATHER SERVICE DENVER/BOULDER CO
1100 PM MDT SAT SEP 20 2014

NOTE: "FAIR" INDICATES FEW OR NO CLOUDS BELOW 12000 FEET WITH NO
SIGNIFICANT WEATHER AND/OR OBSTRUCTIONS TO VISIBILITY.

COZ001>005-013-030-031-210600-
...NORTHWEST COLORADO...

CITY           SKY/WX    TMP DP  RH WIND       PRES   REMARKS
CRAIG          PTCLDY    48  35  60 CALM      30.26R
HAYDEN         PTCLDY    57  30  35 E9        30.27S
MEEKER         CLEAR     56  36  47 E5        30.26
MOUNT WERNER   NOT AVBL
STEAMBOAT SPGS PTCLDY    55  36  47 CALM      30.30S
WALDEN         PTCLDY    54  37  54 SE3       30.41F
$$

COZ006>008-011-210600-
...WEST CENTRAL VALLEYS...

CITY           SKY/WX    TMP DP  RH WIND       PRES   REMARKS
GRAND JUNCTION PTCLDY    70  41  34 E9        30.10S
MONTROSE       MOCLDY    73  44  35 SE9       30.21R
EAGLE          PTCLDY    64  41  42 CALM      30.29S
RIFLE          PTCLDY    66  43  43 CALM      30.18S
DELTA          MOCLDY    72  43  34 NE8       30.17R
NUCLA          MOCLDY    70  41  35 E13       30.21R
$$

COZ017>023-064>068-210600-
...SOUTHWEST COLORADO...

CITY           SKY/WX    TMP DP  RH WIND       PRES   REMARKS
DURANGO        CLOUDY    69  43  38 NE5       30.26R
CORTEZ         MOCLDY    66  49  54 MISG      30.16S
PAGOSA SPRINGS CLOUDY    64  42  44 CALM      30.37R
TELLURIDE      NOT AVBL
WOLF CREEK PAS CLOUDY    45  36  70 NE12      30.67S
$$

COZ009-010-012-014-032>034-037-058>063-210600-
...CENTRAL COLORADO...

CITY           SKY/WX    TMP DP  RH WIND       PRES   REMARKS
ASPEN          MOCLDY    59  45  59 SE9G22    30.36F
BUENA VISTA    HVY RAIN  52  50  92 SE7       30.53R
COPPER MTN     PTCLDY    50  36  57 SE15G24   30.69S
BERTHOUD PASS  FAIR      37  36  93 SE21G28   30.75S
COTTONWOOD PAS LGT RAIN  50  46  87 SE8       30.62R
GUNNISON       MOCLDY    59  43  55 E16G22    30.42R
KREMMLING      PTCLDY    55  39  54 CALM      30.39S
LEADVILLE      MOCLDY    49  39  68 S9        30.57R
MONARCH PASS   LGT RAIN  43  41  93 NE22      30.80F VSB<1/4
SALIDA         CLOUDY    55  53  91 N7        30.58R
SUNLIGHT       MOCLDY    54  37  54 SE6       30.58S
WILKERSON PASS NOT AVBL
$$

COZ069>075-210600-
...SAN LUIS VALLEY/SANGRE DE CRISTO MOUNTAINS...

CITY           SKY/WX    TMP DP  RH WIND       PRES   REMARKS
ALAMOSA        LGT RAIN  64  45  49 E16       30.38R
LA VETA PASS   PTCLDY    48  41  76 NE16G22   30.59R
SAGUACHE       NOT AVBL
$$

COZ035-036-038>040-210600-
...NORTHERN COLORADO FRONT RANGE...

CITY           SKY/WX    TMP DP  RH WIND       PRES   REMARKS
DENVER INTL AP CLOUDY    62  49  62 S8        30.32F
DMNS CITY PARK   N/A     63  55  77 S7        30.32S
AURORA         MOCLDY    62  54  74 SW5       30.34F
FRONT RANGE AP CLOUDY    64  52  63 S8        30.33F
ERIE MUNI ARPT MOCLDY    65  50  57 CALM      30.30S
BOULDER MUN AP CLOUDY    64  46  52 CALM      30.30F
CENTENNIAL     CLOUDY    60  56  86 CALM      30.35S
BROOMFIELD     NOT AVBL
FORT COLLINS   MOCLDY    66  52  59 SE6       30.32R
LONGMONT       MOCLDY    64  52  64 W3        30.32S
$$

COZ041-046-047-076>085-087-088-210600-
...PIKES PEAK/PALMER DIVIDE AND SOUTHERN FOOTHILLS...

CITY           SKY/WX    TMP DP  RH WIND       PRES   REMARKS
COLO. SPRINGS  CLOUDY    67  50  54 NW3       30.40R
A. F. ACADEMY  CLOUDY    61  52  71 NW5       30.41S
ELLICOTT       NOT AVBL
FALCON         CLOUDY    62  49  60 N6        30.44S
FORT CARSON    CLOUDY    67  51  55 N9        30.36R
LIMON          PTCLDY    60  46  59 W6        30.33R
MONUMENT HILL  CLOUDY    54  52  94 CALM      30.42F
TRINIDAD       MOCLDY    66  46  48 SE5       30.32R
$$

COZ042>045-048>051-090-091-210600-
...NORTHEAST COLORADO...

CITY           SKY/WX    TMP DP  RH WIND       PRES   REMARKS
GREELEY ARPT   MOCLDY    63  48  59 E9        30.30S
AKRON          PTCLDY    63  46  54 NE10      30.31R
BURLINGTON     CLEAR     57  47  69 W3        30.26R
WRAY           CLEAR     63  47  56 NE6       30.27R
STERLING       PTCLDY    61  50  67 N7        30.28R
HOLYOKE        CLEAR     59  46  63 N6        30.28R
FORT MORGAN    MOCLDY    62  47  58 NE10      30.31R
$$

COZ086-089-092>099-210600-
...SOUTHEAST COLORADO...

CITY           SKY/WX    TMP DP  RH WIND       PRES   REMARKS
PUEBLO         MOCLDY    71  48  43 E7        30.28R
LA JUNTA       PTCLDY    67  50  54 E8        30.24R
LAMAR          CLEAR     62  51  67 NE3       30.20R
SPRINGFIELD      N/A     66  55  67 E6        30.25R
$$


USA.gov is the U.S. government's official web portal to all federal, state and local government web resources and services.